Tracking 28799 objects as of 18-Apr-2024
HD Live streaming from Space Station
objects crossing your sky now

DELTA 1 DEB

Track DELTA 1 DEB now!
10-day predictions


NORAD ID: 18671
Int'l Code: 1973-086GZ
Perigee: 1,424.5 km
Apogee: 1,606.9 km
Inclination: 101.8 °
Period: 116.2 minutes
Semi major axis: 7886 km
RCS: 0.0238 m2 (small)
Launch date: November 6, 1973
Source: United States (US)
Launch site: AIR FORCE WESTERN TEST RANGE (AFWTR)

Note: This is SATELLITE DEBRIS
Your satellite tracking list
Your tracking list is empty




NASA's NSSDC Master Catalog

Two Line Element Set (TLE):
1 18671U 73086GZ  24108.86750894  .00000237  00000-0  20602-2 0  9993
2 18671 101.7664  77.3752 0115656  55.4161   2.7446 12.39536900663025
Source of the keplerian elements: AFSPC